Regional Weather Roundup
Issued by NWS

Home | Current Version | Previous Version | Text Only | Print | Product List | Glossary On
Versions: 1 2 3 4 5 6 7 8 9 10 11 12 13 14 15 16 17 18 19 20 21 22 23 24 25 26 27 28 29 30 31 32 33 34 35 36 37 38 39 40 41 42 43 44 45 46 47 48 49 50
000
ASCA42 TJSJ 020310
RWRPR
PUERTO RICO/U.S. VIRGIN ISLANDS HOURLY WEATHER ROUNDUP
NATIONAL WEATHER SERVICE SAN JUAN PR
1100 PM AST SUN MAY 01 2016

PRZ001-004-020400-
PUERTO RICO

CITY           SKY/WX    TMP DP  RH WIND       PRES   REMARKS
SAN JUAN LMM   PTCLDY    73  68  83 CALM      30.02F
PONCE          MOCLDY    73  72  94 NE6       30.00
CEIBA          CLEAR     72  70  94 SW5       30.04F
$$

PRZ006-007-020400-
U.S. VIRGIN ISLANDS

CITY           SKY/WX    TMP DP  RH WIND       PRES   REMARKS
CHARLOTTE AMA  CLEAR     77  70  78 E6        30.01F
CHRISTIANSTED  CLEAR     72  72 100 N6        30.03S
$$

HOURLY WEATHER ROUNDUP FOR THE NEWS MEDIA

CITY           SKY/WX    TMP DP  RH WIND       PRES   REMARKS
ORLANDO        CLEAR     76  69  79 E7        30.06R
NEW YORK       CLOUDY    45  42  89 NE7       30.09F FOG
NEWARK         CLOUDY    44  43  96 N9        30.09S
CHICAGO        LGT RAIN  46  45  96 NE8       29.99R
HARTFORD       LGT RAIN  44  43  96 N3        30.13F
BOSTON         DRIZZLE   43  39  87 SE5       30.16F
DALLAS         PTCLDY    68  49  50 NE8G20    30.03R
PHILADELPHIA   CLOUDY    51  48  89 E7        30.07F
LOS ANGELES    PTCLDY    59  52  77 W8        29.95R
WASHINGTON DC  TSTM      55  54  96 CALM      30.06R VSB 1


USA.gov is the U.S. government's official web portal to all federal, state and local government web resources and services.